,,Stat5,,Stat1,,Stat2,,Stat3,,Stat4,,Wind1,,Wind1,
time,status,PA1M_AVG,status,PR1M_SUM,status,RH1M_AVG,status,SR1M_AVG,status,TA1M_AVG,status,W1dAve1m,status,W1sAve1m,
2002-12-16, 00:00:00,VALID,919.242,VALID,0,VALID,90.5637,VALID,0.0509425,VALID,21.0406,VALID,118,VALID,1.18919,
2002-12-16, 00:01:00,VALID,919.242,VALID,0,VALID,90.5204,VALID,0,VALID,21.0376,VALID,117,VALID,1.30714,
2002-12-16, 00:02:00,VALID,919.237,VALID,0,VALID,90.4759,VALID,0.0339617,VALID,21.0438,VALID,104,VALID,1.23459,
2002-12-16, 00:03:00,VALID,919.221,VALID,0,VALID,90.0449,VALID,0.0169808,VALID,21.0697,VALID,116,VALID,1.78194,
2002-12-16, 00:04:00,VALID,919.226,VALID,0,VALID,89.788,VALID,0.0169808,VALID,21.1184,VALID,132,VALID,1.35085,
2002-12-16, 00:05:00,VALID,919.23,VALID,0,VALID,89.7727,VALID,0,VALID,21.1542,VALID,117,VALID,1.61575,
2002-12-16, 00:06:00,VALID,919.231,VALID,0,VALID,89.8605,VALID,0,VALID,21.1671,VALID,117,VALID,1.46898,
2002-12-16, 00:07:00,VALID,919.244,VALID,0,VALID,89.7295,VALID,-0.0169808,VALID,21.1577,VALID,126,VALID,1.64039,
2002-12-16, 00:08:00,VALID,919.238,VALID,0,VALID,89.6494,VALID,-0.0169808,VALID,21.1844,VALID,138,VALID,1.45812,
2002-12-16, 00:09:00,VALID,919.235,VALID,0,VALID,89.7282,VALID,-0.0339617,VALID,21.2005,VALID,134,VALID,1.28993,
2002-12-16, 00:10:00,VALID,919.225,VALID,0,VALID,89.6418,VALID,-0.0509425,VALID,21.1973,VALID,129,VALID,1.27367,
2002-12-16, 00:11:00,VALID,919.212,VALID,0,VALID,89.5311,VALID,-0.0169808,VALID,21.2035,VALID,125,VALID,1.55714,
2002-12-16, 00:12:00,VALID,919.204,VALID,0,VALID,89.3188,VALID,-0.0679233,VALID,21.2226,VALID,139,VALID,1.45201,
2002-12-16, 00:13:00,VALID,919.212,VALID,0,VALID,89.17,VALID,-0.0509425,VALID,21.2485,VALID,124,VALID,1.57495,
2002-12-16, 00:14:00,VALID,919.219,VALID,0,VALID,89.1776,VALID,-0.0339617,VALID,21.2773,VALID,117,VALID,1.66406,
2002-12-16, 00:15:01,VALID,919.221,VALID,0,VALID,89.1306,VALID,-0.0339617,VALID,21.2937,VALID,138,VALID,1.59283,
2002-12-16, 00:16:00,VALID,919.206,VALID,0,VALID,89.2272,VALID,-0.0509425,VALID,21.2964,VALID,126,VALID,1.3357,
2002-12-16, 00:17:00,VALID,919.226,VALID,0,VALID,89.3607,VALID,-0.0169808,VALID,21.2935,VALID,123,VALID,1.22461,
2002-12-16, 00:18:00,VALID,919.222,VALID,0,VALID,89.259,VALID,-0.0509425,VALID,21.2738,VALID,125,VALID,1.58767,
2002-12-16, 00:19:00,VALID,919.222,VALID,0,VALID,89.3684,VALID,0,VALID,21.2937,VALID,128,VALID,1.48011,
2002-12-16, 00:20:00,VALID,919.226,VALID,0,VALID,89.3849,VALID,-0.0169808,VALID,21.2905,VALID,134,VALID,1.23259,
2002-12-16, 00:21:00,VALID,919.229,VALID,0,VALID,89.3938,VALID,-0.0509425,VALID,21.2811,VALID,135,VALID,1.35201,
2002-12-16, 00:22:00,VALID,919.241,VALID,0,VALID,89.5655,VALID,-0.0849042,VALID,21.2714,VALID,130,VALID,1.40723,
2002-12-16, 00:23:00,VALID,919.25,VALID,0,VALID,89.7231,VALID,-0.0169808,VALID,21.2485,VALID,138,VALID,1.1213,
2002-12-16, 00:24:01,VALID,919.265,VALID,0,VALID,89.7142,VALID,-0.0509425,VALID,21.2393,VALID,117,VALID,1.57721,
2002-12-16, 00:25:01,VALID,919.258,VALID,0,VALID,89.8567,VALID,-0.0169808,VALID,21.2127,VALID,115,VALID,1.30682,
2002-12-16, 00:26:00,VALID,919.262,VALID,0,VALID,89.8668,VALID,-0.0339617,VALID,21.203,VALID,113,VALID,1.57856,
2002-12-16, 00:27:00,VALID,919.271,VALID,0,VALID,90.0309,VALID,-0.0679233,VALID,21.1935,VALID,122,VALID,1.16862,
2002-12-16, 00:28:00,VALID,919.276,VALID,0,VALID,90.1975,VALID,-0.0509425,VALID,21.1776,VALID,124,VALID,1.10275,
2002-12-16, 00:29:00,VALID,919.265,VALID,0,VALID,90.4276,VALID,-0.0849042,VALID,21.1615,VALID,119,VALID,0.810045,
2002-12-16, 00:30:00,VALID,919.277,VALID,0,VALID,90.4505,VALID,-0.0339617,VALID,21.1518,VALID,123,VALID,1.23594,
2002-12-16, 00:31:00,VALID,919.268,VALID,0,VALID,90.5395,VALID,-0.0679233,VALID,21.1219,VALID,129,VALID,1.11963,
2002-12-16, 00:32:00,VALID,919.273,VALID,0,VALID,90.6387,VALID,-0.0339617,VALID,21.1157,VALID,101,VALID,0.730674,
2002-12-16, 00:33:01,VALID,919.27,VALID,0,VALID,90.8587,VALID,-0.0169808,VALID,21.1065,VALID,100,VALID,0.865349,
2002-12-16, 00:34:01,VALID,919.275,VALID,0,VALID,90.8994,VALID,0,VALID,21.0637,VALID,115,VALID,1.06179,
2002-12-16, 00:35:00,VALID,919.279,VALID,0,VALID,91.0596,VALID,-0.0339617,VALID,21.0511,VALID,115,VALID,1.0421,
2002-12-16, 00:36:01,VALID,919.28,VALID,0,VALID,91.0405,VALID,-0.0509425,VALID,21.0284,VALID,130,VALID,1.28798,
2002-12-16, 00:37:00,VALID,919.274,VALID,0,VALID,91.0278,VALID,-0.0849042,VALID,21.0449,VALID,126,VALID,1.2642,
2002-12-16, 00:38:00,VALID,918.854,VALID,0,VALID,90.9617,VALID,-0.0339617,VALID,21.0511,VALID,128,VALID,1.63304,
2002-12-16, 00:39:00,VALID,919.262,VALID,0,VALID,90.846,VALID,-0.0679233,VALID,21.0581,VALID,120,VALID,1.64353,
2002-12-16, 00:40:00,VALID,919.235,VALID,0,VALID,90.8625,VALID,-0.0509425,VALID,21.0809,VALID,129,VALID,1.62402,
2002-12-16, 00:41:00,VALID,919.224,VALID,0,VALID,90.9045,VALID,-0.0169808,VALID,21.0904,VALID,116,VALID,1.59519,
2002-12-16, 00:42:01,VALID,919.208,VALID,0,VALID,90.6819,VALID,-0.0169808,VALID,21.0904,VALID,137,VALID,1.68842,
2002-12-16, 00:43:01,VALID,919.211,VALID,0,VALID,90.6883,VALID,-0.0339617,VALID,21.1133,VALID,111,VALID,1.48224,
2002-12-16, 00:44:00,VALID,919.192,VALID,0,VALID,90.8472,VALID,-0.0339617,VALID,21.1028,VALID,117,VALID,0.994792,
2002-12-16, 00:45:00,VALID,919.193,VALID,0,VALID,90.9617,VALID,0,VALID,21.0831,VALID,120,VALID,1.5944,
2002-12-16, 00:46:00,VALID,919.191,VALID,0,VALID,91.0838,VALID,-0.0339617,VALID,21.0772,VALID,134,VALID,1.79119,
2002-12-16, 00:47:00,VALID,919.168,VALID,0,VALID,91.2783,VALID,-0.0339617,VALID,21.0581,VALID,119,VALID,1.46607,
2002-12-16, 00:48:00,VALID,919.171,VALID,0,VALID,91.4958,VALID,-0.0339617,VALID,21.0284,VALID,130,VALID,1.26585,
2002-12-16, 00:49:00,VALID,919.17,VALID,0,VALID,91.6445,VALID,0.0169808,VALID,21.0126,VALID,129,VALID,1.37793,
2002-12-16, 00:50:01,VALID,919.164,VALID,0,VALID,91.7908,VALID,-0.0169808,VALID,20.9899,VALID,151,VALID,1.43257,
2002-12-16, 00:51:01,VALID,919.163,VALID,0,VALID,92.1443,VALID,-0.0509425,VALID,20.9773,VALID,131,VALID,1.16245,
2002-12-16, 00:52:01,VALID,919.162,VALID,0,VALID,92.0426,VALID,-0.0339617,VALID,20.9579,VALID,147,VALID,1.70715,
2002-12-16, 00:53:00,VALID,919.155,VALID,0,VALID,92.1939,VALID,0,VALID,20.9312,VALID,138,VALID,1.41233,
2002-12-16, 00:54:00,VALID,919.145,VALID,0,VALID,92.1583,VALID,-0.0339617,VALID,20.9253,VALID,144,VALID,2.18924,
2002-12-16, 00:55:00,VALID,919.151,VALID,0,VALID,92.2969,VALID,-0.0679233,VALID,20.9129,VALID,140,VALID,1.33286,
2002-12-16, 00:56:00,VALID,919.15,VALID,0,VALID,92.3337,VALID,-0.0679233,VALID,20.893,VALID,125,VALID,1.06942,
2002-12-16, 00:57:00,VALID,919.15,VALID,0,VALID,92.4635,VALID,-0.0849042,VALID,20.897,VALID,143,VALID,1.6721,
2002-12-16, 00:58:00,VALID,919.148,VALID,0,VALID,92.6873,VALID,-0.0339617,VALID,20.8674,VALID,138,VALID,1.17651,
2002-12-16, 00:59:00,VALID,919.154,VALID,0,VALID,92.7915,VALID,-0.0169808,VALID,20.8545,VALID,142,VALID,1.13137,
2002-12-16, 01:00:01,VALID,919.151,VALID,0,VALID,92.9734,VALID,-0.0679233,VALID,20.8518,VALID,147,VALID,1.25781,
2002-12-16, 01:01:01,VALID,919.14,VALID,0,VALID,93.0153,VALID,-0.0169808,VALID,20.8224,VALID,149,VALID,1.25497,
2002-12-16, 01:02:00,VALID,919.134,VALID,0,VALID,93.2493,VALID,-0.0679233,VALID,20.803,VALID,148,VALID,0.8852,
2002-12-16, 01:03:00,VALID,919.121,VALID,0,VALID,93.3485,VALID,-0.0509425,VALID,20.7901,VALID,156,VALID,1.16819,
2002-12-16, 01:04:01,VALID,919.094,VALID,0,VALID,93.3854,VALID,0,VALID,20.7739,VALID,173,VALID,1.00355,
2002-12-16, 01:05:00,VALID,919.085,VALID,0,VALID,93.3917,VALID,-0.0679233,VALID,20.7607,VALID,162,VALID,1.2317,
2002-12-16, 01:06:00,VALID,919.082,VALID,0,VALID,93.468,VALID,-0.0169808,VALID,20.7543,VALID,152,VALID,1.1,
2002-12-16, 01:07:00,VALID,919.066,VALID,0,VALID,93.4489,VALID,0.0679233,VALID,20.7532,VALID,154,VALID,1.27539,
2002-12-16, 01:08:00,VALID,919.051,VALID,0,VALID,93.4095,VALID,0,VALID,20.7465,VALID,163,VALID,1.27673,
2002-12-16, 01:09:01,VALID,919.042,VALID,0,VALID,93.5367,VALID,0,VALID,20.7395,VALID,115,VALID,0.778722,
2002-12-16, 01:10:01,VALID,919.033,VALID,0,VALID,93.6918,VALID,0.0339617,VALID,20.7664,VALID,92,VALID,0.732481,
2002-12-16, 01:11:00,VALID,919.049,VALID,0,VALID,93.7363,VALID,0.0169808,VALID,20.7433,VALID,112,VALID,1.04427,
2002-12-16, 01:12:00,VALID,919.038,VALID,0,VALID,93.8851,VALID,0.0509425,VALID,20.7242,VALID,106,VALID,0.538845,
2002-12-16, 01:13:00,VALID,919.037,VALID,0,VALID,94.058,VALID,0.0339617,VALID,20.6978,VALID,111,VALID,0.316051,
2002-12-16, 01:14:00,VALID,919.037,VALID,0,VALID,94.0517,VALID,0.0679233,VALID,20.6846,VALID,125,VALID,1.04062,
2002-12-16, 01:15:00,VALID,919.036,VALID,0,VALID,94.0199,VALID,0.0849042,VALID,20.6886,VALID,117,VALID,0.736384,
2002-12-16, 01:16:00,VALID,919.028,VALID,0,VALID,94.0085,VALID,0.0849042,VALID,20.6655,VALID,147,VALID,0.746582,
2002-12-16, 01:17:00,VALID,919.011,VALID,0,VALID,93.9563,VALID,0.0509425,VALID,20.6787,VALID,119,VALID,0.572213,
2002-12-16, 01:18:01,VALID,919.011,VALID,0,VALID,93.8431,VALID,0.0679233,VALID,20.6824,VALID,137,VALID,0.824219,
2002-12-16, 01:19:01,VALID,919.002,VALID,0,VALID,93.8101,VALID,0.0849042,VALID,20.6921,VALID,149,VALID,0.261837,
2002-12-16, 01:20:00,VALID,918.978,VALID,0,VALID,93.7707,VALID,0.0679233,VALID,20.6913,VALID,159,VALID,0.573351,
2002-12-16, 01:21:01,VALID,918.972,VALID,0,VALID,93.7656,VALID,0.0509425,VALID,20.698,VALID,150,VALID,0.663628,
2002-12-16, 01:22:00,VALID,918.962,VALID,0,VALID,93.8686,VALID,-0.0509425,VALID,20.7058,VALID,134,VALID,0.181581,
2002-12-16, 01:23:00,VALID,918.976,VALID,0.2,VALID,93.997,VALID,-0.0849042,VALID,20.7155,VALID,139,VALID,0.269866,
2002-12-16, 01:24:00,VALID,918.972,VALID,0,VALID,94.0949,VALID,-0.0339617,VALID,20.7322,VALID,150,VALID,0.0921875,
2002-12-16, 01:25:00,VALID,918.964,VALID,0,VALID,93.9372,VALID,0,VALID,20.7384,VALID,155,VALID,0.350342,
2002-12-16, 01:26:00,VALID,918.968,VALID,0,VALID,94.161,VALID,-0.0509425,VALID,20.7448,VALID,147,VALID,0.488281,
2002-12-16, 01:27:01,VALID,918.958,VALID,0,VALID,93.8063,VALID,-0.0169808,VALID,20.7386,VALID,135,VALID,0.778722,
2002-12-16, 01:28:01,VALID,918.946,VALID,0,VALID,93.7948,VALID,-0.0679233,VALID,20.719,VALID,143,VALID,0.592803,
2002-12-16, 01:29:00,VALID,918.927,VALID,0,VALID,93.964,VALID,-0.0339617,VALID,20.7324,VALID,108,VALID,0.301432,
2002-12-16, 01:30:00,VALID,918.9,VALID,0,VALID,93.969,VALID,-0.0169808,VALID,20.7123,VALID,123,VALID,0.441406,
2002-12-16, 01:31:00,VALID,918.89,VALID,0,VALID,93.9372,VALID,-0.0339617,VALID,20.6897,VALID,158,VALID,0.725616,
2002-12-16, 01:32:00,VALID,918.887,VALID,0,VALID,94.0809,VALID,-0.0849042,VALID,20.6775,VALID,153,VALID,0.302455,
2002-12-16, 01:33:00,VALID,918.87,VALID,0,VALID,94.1903,VALID,-0.0339617,VALID,20.6805,VALID,127,VALID,0.415179,
2002-12-16, 01:34:00,VALID,918.858,VALID,0,VALID,94.3696,VALID,-0.0509425,VALID,20.6867,VALID,151,VALID,0.230957,
2002-12-16, 01:35:01,VALID,918.842,VALID,0,VALID,94.6239,VALID,-0.0679233,VALID,20.6899,VALID,150,VALID,0.000411184,
2002-12-16, 01:36:01,VALID,918.831,VALID,0,VALID,94.5069,VALID,-0.0339617,VALID,20.6904,VALID,150,VALID,0.178768,
2002-12-16, 01:37:01,VALID,918.819,VALID,0,VALID,94.4955,VALID,-0.0509425,VALID,20.6549,VALID,151,VALID,0.0175189,
2002-12-16, 01:38:00,VALID,918.801,VALID,0,VALID,94.5527,VALID,-0.0509425,VALID,20.6581,VALID,160,VALID,0.0292969,
2002-12-16, 01:39:00,VALID,918.772,VALID,0,VALID,94.9431,VALID,-0.0679233,VALID,20.6678,VALID,160,VALID,0.0746528,
2002-12-16, 01:40:00,VALID,918.755,VALID,0,VALID,94.8185,VALID,-0.0679233,VALID,20.6581,VALID,160,VALID,0,
2002-12-16, 01:41:00,VALID,918.723,VALID,0,VALID,94.6074,VALID,-0.0679233,VALID,20.629,VALID,160,VALID,0.117857,
2002-12-16, 01:42:00,VALID,918.716,VALID,0,VALID,94.8464,VALID,-0.0679233,VALID,20.6422,VALID,160,VALID,0.13817,
2002-12-16, 01:43:00,VALID,918.698,VALID,0,VALID,94.9469,VALID,-0.0849042,VALID,20.6131,VALID,267,VALID,0.330811,
2002-12-16, 01:44:00,VALID,918.674,VALID,0,VALID,95.0868,VALID,-0.0679233,VALID,20.5835,VALID,296,VALID,0.329359,
2002-12-16, 01:45:01,VALID,918.665,VALID,0,VALID,95.4428,VALID,-0.0679233,VALID,20.5609,VALID,296,VALID,0.190947,
2002-12-16, 01:46:01,VALID,918.65,VALID,0,VALID,95.6476,VALID,-0.0509425,VALID,20.552,VALID,296,VALID,0.0641572,
2002-12-16, 01:47:00,VALID,918.644,VALID,0,VALID,95.7989,VALID,-0.0679233,VALID,20.5326,VALID,296,VALID,0,
2002-12-16, 01:48:00,VALID,918.639,VALID,0,VALID,95.9629,VALID,-0.0679233,VALID,20.5259,VALID,296,VALID,0.000868056,
2002-12-16, 01:49:01,VALID,918.627,VALID,0,VALID,96.0824,VALID,-0.0679233,VALID,20.5194,VALID,296,VALID,0.000236742,
2002-12-16, 01:50:00,VALID,918.616,VALID,0,VALID,96.1486,VALID,-0.0679233,VALID,20.5038,VALID,296,VALID,0,
2002-12-16, 01:51:00,VALID,918.605,VALID,0,VALID,96.2401,VALID,-0.0509425,VALID,20.4936,VALID,296,VALID,0,
2002-12-16, 01:52:00,VALID,918.609,VALID,0,VALID,96.1765,VALID,-0.0849042,VALID,20.4772,VALID,296,VALID,0,
2002-12-16, 01:53:00,VALID,918.587,VALID,0,VALID,96.2223,VALID,-0.0849042,VALID,20.4613,VALID,296,VALID,0,
2002-12-16, 01:54:01,VALID,918.56,VALID,0,VALID,96.3596,VALID,-0.0679233,VALID,20.4707,VALID,296,VALID,0,
2002-12-16, 01:55:01,VALID,918.554,VALID,0,VALID,96.422,VALID,-0.0169808,VALID,20.4774,VALID,296,VALID,0.223722,
2002-12-16, 01:56:01,VALID,918.532,VALID,0,VALID,96.4538,VALID,-0.0849042,VALID,20.4804,VALID,303,VALID,0.371094,
2002-12-16, 01:57:00,VALID,918.529,VALID,0,VALID,96.029,VALID,-0.0849042,VALID,20.4481,VALID,76,VALID,0.503038,
2002-12-16, 01:58:00,VALID,918.51,VALID,0,VALID,95.6946,VALID,-0.0339617,VALID,20.416,VALID,76,VALID,0.590436,
2002-12-16, 01:59:01,VALID,918.492,VALID,0,VALID,95.7785,VALID,-0.101885,VALID,20.4155,VALID,76,VALID,0.443527,
2002-12-16, 02:00:01,VALID,918.489,VALID,0,VALID,95.8294,VALID,-0.0509425,VALID,20.4351,VALID,76,VALID,0.248214,
2002-12-16, 02:01:00,VALID,918.484,VALID,0,VALID,96.0316,VALID,-0.0509425,VALID,20.4513,VALID,90,VALID,0.45166,
2002-12-16, 02:02:00,VALID,918.471,VALID,0,VALID,96.1333,VALID,-0.0339617,VALID,20.4548,VALID,125,VALID,0.633635,
2002-12-16, 02:03:01,VALID,918.439,VALID,0,VALID,96.1308,VALID,-0.0509425,VALID,20.4481,VALID,122,VALID,0.521599,
2002-12-16, 02:04:01,VALID,918.434,VALID,0,VALID,96.1638,VALID,-0.0849042,VALID,20.4357,VALID,119,VALID,0.584991,
2002-12-16, 02:05:01,VALID,918.403,VALID,0,VALID,96.1613,VALID,-0.101885,VALID,20.4158,VALID,113,VALID,0.690321,
2002-12-16, 02:06:01,VALID,918.376,VALID,0,VALID,96.1587,VALID,-0.0849042,VALID,20.4058,VALID,117,VALID,0.816406,
2002-12-16, 02:07:01,VALID,918.344,VALID,0,VALID,96.1104,VALID,-0.0339617,VALID,20.4058,VALID,121,VALID,0.830019,
2002-12-16, 02:08:01,VALID,918.324,VALID,0,VALID,96.221,VALID,-0.0849042,VALID,20.4257,VALID,128,VALID,0.46808,
2002-12-16, 02:09:01,VALID,918.315,VALID,0,VALID,96.1689,VALID,-0.0679233,VALID,20.4322,VALID,116,VALID,0.533929,
2002-12-16, 02:10:01,VALID,918.283,VALID,0,VALID,96.2083,VALID,-0.0339617,VALID,20.4354,VALID,120,VALID,0.518799,
2002-12-16, 02:11:01,VALID,918.277,VALID,0,VALID,96.2706,VALID,-0.0339617,VALID,20.4317,VALID,144,VALID,0.448191,
2002-12-16, 02:12:01,VALID,918.255,VALID,0,VALID,96.3342,VALID,-0.0339617,VALID,20.4419,VALID,107,VALID,0.459559,
2002-12-16, 02:13:01,VALID,918.228,VALID,0,VALID,96.3419,VALID,-0.0509425,VALID,20.4351,VALID,129,VALID,0.490767,
2002-12-16, 02:14:01,VALID,918.211,VALID,0,VALID,96.3342,VALID,-0.0679233,VALID,20.4386,VALID,127,VALID,0.424262,
2002-12-16, 02:15:01,VALID,918.192,VALID,0,VALID,96.2897,VALID,-0.0339617,VALID,20.4222,VALID,125,VALID,0.615668,
2002-12-16, 02:16:01,VALID,918.167,VALID,0,VALID,96.2668,VALID,-0.0169808,VALID,20.419,VALID,145,VALID,0.828362,
2002-12-16, 02:17:01,VALID,918.153,VALID,0,VALID,96.3431,VALID,-0.0169808,VALID,20.426,VALID,159,VALID,0.772991,
2002-12-16, 02:18:01,VALID,918.13,VALID,0,VALID,96.3546,VALID,-0.0169808,VALID,20.4061,VALID,132,VALID,0.609152,
2002-12-16, 02:19:01,VALID,918.102,VALID,0,VALID,96.4448,VALID,-0.0509425,VALID,20.4068,VALID,128,VALID,0.477539,
2002-12-16, 02:20:01,VALID,918.076,VALID,0,VALID,96.4983,VALID,-0.0339617,VALID,20.3899,VALID,125,VALID,0.393914,
2002-12-16, 02:21:01,VALID,918.05,VALID,0,VALID,96.4957,VALID,-0.0509425,VALID,20.3668,VALID,121,VALID,0.434053,
2002-12-16, 02:22:01,VALID,918.031,VALID,0,VALID,96.5974,VALID,0,VALID,20.3579,VALID,129,VALID,0.387547,
2002-12-16, 02:23:01,VALID,918.017,VALID,0,VALID,96.7399,VALID,-0.0169808,VALID,20.3449,VALID,133,VALID,0.341797,
2002-12-16, 02:24:00,VALID,918.006,VALID,0,VALID,96.7297,VALID,-0.0849042,VALID,20.3258,VALID,118,VALID,0.6148,
2002-12-16, 02:25:00,VALID,918.008,VALID,0,VALID,96.7399,VALID,-0.101885,VALID,20.2962,VALID,113,VALID,0.627131,
2002-12-16, 02:26:00,VALID,918.001,VALID,0.2,VALID,96.8022,VALID,-0.0849042,VALID,20.2902,VALID,134,VALID,0.710491,
2002-12-16, 02:27:00,VALID,917.984,VALID,0,VALID,96.8212,VALID,-0.0849042,VALID,20.2965,VALID,116,VALID,0.618973,
2002-12-16, 02:28:00,VALID,917.994,VALID,0,VALID,96.7856,VALID,-0.0169808,VALID,20.2803,VALID,129,VALID,0.694824,
2002-12-16, 02:29:00,VALID,917.984,VALID,0,VALID,96.7577,VALID,-0.0339617,VALID,20.29,VALID,137,VALID,0.700452,
2002-12-16, 02:30:00,VALID,917.987,VALID,0,VALID,96.7615,VALID,-0.0509425,VALID,20.2833,VALID,91,VALID,0.519072,
2002-12-16, 02:31:00,VALID,917.985,VALID,0,VALID,96.7322,VALID,-0.0679233,VALID,20.2902,VALID,106,VALID,0.513021,
2002-12-16, 02:32:00,VALID,917.983,VALID,0,VALID,96.7208,VALID,-0.101885,VALID,20.2908,VALID,104,VALID,0.54796,
2002-12-16, 02:33:00,VALID,917.971,VALID,0,VALID,96.6725,VALID,-0.0679233,VALID,20.2806,VALID,106,VALID,0.461372,
2002-12-16, 02:34:00,VALID,917.97,VALID,0,VALID,96.6674,VALID,-0.0849042,VALID,20.2776,VALID,84,VALID,0.673059,
2002-12-16, 02:35:00,VALID,917.974,VALID,0,VALID,96.7017,VALID,-0.0849042,VALID,20.2873,VALID,71,VALID,0.662723,
2002-12-16, 02:36:00,VALID,917.967,VALID,0,VALID,96.717,VALID,-0.0679233,VALID,20.294,VALID,62,VALID,0.539732,
2002-12-16, 02:37:00,VALID,917.963,VALID,0,VALID,96.7373,VALID,-0.118866,VALID,20.294,VALID,51,VALID,0.618652,
2002-12-16, 02:38:00,VALID,917.972,VALID,0,VALID,96.853,VALID,-0.0679233,VALID,20.2972,VALID,43,VALID,0.58491,
2002-12-16, 02:39:00,VALID,917.965,VALID,0,VALID,96.9331,VALID,-0.0509425,VALID,20.297,VALID,28,VALID,0.876379,
2002-12-16, 02:40:00,VALID,917.968,VALID,0,VALID,96.9001,VALID,-0.101885,VALID,20.2674,VALID,23,VALID,0.68821,
2002-12-16, 02:41:00,VALID,917.957,VALID,0,VALID,96.9242,VALID,-0.0849042,VALID,20.2619,VALID,31,VALID,0.726997,
2002-12-16, 02:42:00,VALID,917.941,VALID,0,VALID,96.8988,VALID,-0.0849042,VALID,20.2358,VALID,37,VALID,0.573785,
2002-12-16, 02:43:00,VALID,917.931,VALID,0,VALID,96.9103,VALID,-0.101885,VALID,20.2226,VALID,36,VALID,0.370739,
2002-12-16, 02:44:00,VALID,917.933,VALID,0,VALID,96.9878,VALID,-0.101885,VALID,20.2326,VALID,37,VALID,0.396875,
2002-12-16, 02:45:00,VALID,917.925,VALID,0,VALID,96.9115,VALID,-0.101885,VALID,20.2291,VALID,61,VALID,0.452455,
2002-12-16, 02:46:00,VALID,917.93,VALID,0,VALID,96.8836,VALID,-0.0679233,VALID,20.2226,VALID,72,VALID,0.335693,
2002-12-16, 02:47:00,VALID,917.937,VALID,0,VALID,96.9624,VALID,-0.0679233,VALID,20.2254,VALID,49,VALID,0.456209,
2002-12-16, 02:48:00,VALID,917.941,VALID,0,VALID,96.9446,VALID,-0.0679233,VALID,20.2517,VALID,47,VALID,0.209559,
2002-12-16, 02:49:00,VALID,917.941,VALID,0,VALID,96.7818,VALID,-0.0679233,VALID,20.2418,VALID,51,VALID,0.483665,
2002-12-16, 02:50:00,VALID,917.949,VALID,0,VALID,96.7144,VALID,-0.0849042,VALID,20.2453,VALID,53,VALID,0.183811,
2002-12-16, 02:51:00,VALID,917.947,VALID,0,VALID,96.6508,VALID,-0.0849042,VALID,20.2453,VALID,84,VALID,0.620877,
2002-12-16, 02:52:00,VALID,917.938,VALID,0,VALID,96.6089,VALID,-0.0339617,VALID,20.242,VALID,75,VALID,0.425189,
2002-12-16, 02:53:00,VALID,917.921,VALID,0,VALID,96.5224,VALID,-0.0509425,VALID,20.2383,VALID,107,VALID,0.46183,
2002-12-16, 02:54:00,VALID,917.921,VALID,0,VALID,96.4105,VALID,-0.0509425,VALID,20.2283,VALID,103,VALID,0.671429,
2002-12-16, 02:55:00,VALID,917.927,VALID,0,VALID,96.3024,VALID,-0.0509425,VALID,20.2313,VALID,98,VALID,0.725586,
2002-12-16, 02:56:00,VALID,917.936,VALID,0,VALID,96.1918,VALID,-0.0169808,VALID,20.2619,VALID,87,VALID,0.744243,
2002-12-16, 02:57:00,VALID,917.918,VALID,0,VALID,96.16,VALID,-0.0339617,VALID,20.2512,VALID,97,VALID,0.728401,
2002-12-16, 02:58:00,VALID,917.921,VALID,0,VALID,96.118,VALID,-0.0509425,VALID,20.2676,VALID,98,VALID,0.683712,
2002-12-16, 02:59:00,VALID,917.912,VALID,0,VALID,96.0939,VALID,0,VALID,20.2773,VALID,97,VALID,0.830512,
2002-12-16, 03:00:00,VALID,917.919,VALID,0,VALID,96.085,VALID,-0.0339617,VALID,20.2773,VALID,100,VALID,0.356771,
2002-12-16, 03:01:00,VALID,917.918,VALID,0,VALID,96.1295,VALID,0,VALID,20.2868,VALID,100,VALID,0.176847,
2002-12-16, 03:02:00,VALID,917.914,VALID,0,VALID,96.2249,VALID,-0.0169808,VALID,20.2835,VALID,52,VALID,0.626562,
2002-12-16, 03:03:00,VALID,917.907,VALID,0,VALID,96.2223,VALID,-0.0339617,VALID,20.2999,VALID,88,VALID,0.736384,
2002-12-16, 03:04:00,VALID,917.896,VALID,0,VALID,96.0685,VALID,-0.0169808,VALID,20.2768,VALID,77,VALID,1.00269,
2002-12-16, 03:05:00,VALID,917.892,VALID,0,VALID,96.0456,VALID,-0.0339617,VALID,20.2902,VALID,74,VALID,0.893503,
2002-12-16, 03:06:00,VALID,917.883,VALID,0,VALID,96.0557,VALID,-0.0509425,VALID,20.293,VALID,103,VALID,0.826976,
2002-12-16, 03:07:00,VALID,917.888,VALID,0,VALID,96.0659,VALID,-0.0339617,VALID,20.293,VALID,84,VALID,0.908381,
2002-12-16, 03:08:00,VALID,917.872,VALID,0.2,VALID,96.1486,VALID,-0.0339617,VALID,20.2932,VALID,84,VALID,0.682943,
2002-12-16, 03:09:00,VALID,917.865,VALID,0,VALID,96.188,VALID,-0.0169808,VALID,20.2868,VALID,87,VALID,0.74783,
2002-12-16, 03:10:00,VALID,917.856,VALID,0,VALID,96.3151,VALID,-0.0339617,VALID,20.2609,VALID,99,VALID,0.657959,
2002-12-16, 03:11:00,VALID,917.856,VALID,0,VALID,96.3495,VALID,-0.0339617,VALID,20.2647,VALID,102,VALID,0.654241,
2002-12-16, 03:12:00,VALID,917.855,VALID,0,VALID,96.4423,VALID,-0.0509425,VALID,20.2385,VALID,117,VALID,0.414063,
2002-12-16, 03:13:00,VALID,917.847,VALID,0,VALID,96.5542,VALID,-0.0509425,VALID,20.2358,VALID,113,VALID,0.698486,
2002-12-16, 03:14:00,VALID,917.852,VALID,0,VALID,96.6318,VALID,-0.0509425,VALID,20.2383,VALID,106,VALID,0.303454,
2002-12-16, 03:15:00,VALID,917.852,VALID,0,VALID,96.6954,VALID,-0.0169808,VALID,20.242,VALID,103,VALID,0.429688,
2002-12-16, 03:16:00,VALID,917.847,VALID,0,VALID,96.7157,VALID,-0.0339617,VALID,20.2256,VALID,104,VALID,0.445549,
2002-12-16, 03:17:00,VALID,917.856,VALID,0,VALID,96.7538,VALID,-0.0679233,VALID,20.2294,VALID,114,VALID,0.232639,
2002-12-16, 03:18:00,VALID,917.856,VALID,0,VALID,96.7221,VALID,-0.0339617,VALID,20.2157,VALID,117,VALID,0.165582,
2002-12-16, 03:19:00,VALID,917.866,VALID,0,VALID,96.8174,VALID,0,VALID,20.2189,VALID,117,VALID,0,
2002-12-16, 03:20:00,VALID,917.853,VALID,0,VALID,96.8785,VALID,-0.0509425,VALID,20.2159,VALID,112,VALID,0.127902,
2002-12-16, 03:21:00,VALID,917.862,VALID,0,VALID,96.7805,VALID,-0.0339617,VALID,20.2157,VALID,105,VALID,0.315625,
2002-12-16, 03:22:00,VALID,917.862,VALID,0,VALID,96.7666,VALID,-0.0169808,VALID,20.2057,VALID,107,VALID,0.0578613,
2002-12-16, 03:23:00,VALID,917.856,VALID,0,VALID,96.7755,VALID,-0.0339617,VALID,20.2055,VALID,107,VALID,0,
2002-12-16, 03:24:00,VALID,917.847,VALID,0,VALID,96.8454,VALID,-0.0169808,VALID,20.2033,VALID,159,VALID,0.203125,
2002-12-16, 03:25:00,VALID,917.841,VALID,0,VALID,96.9789,VALID,-0.0169808,VALID,20.2294,VALID,174,VALID,0,
2002-12-16, 03:26:00,VALID,917.83,VALID,0,VALID,97.0158,VALID,0,VALID,20.2423,VALID,172,VALID,0.0687934,
2002-12-16, 03:27:00,VALID,917.827,VALID,0,VALID,97.0489,VALID,-0.0849042,VALID,20.2353,VALID,171,VALID,0,
2002-12-16, 03:28:00,VALID,917.829,VALID,0,VALID,97.0972,VALID,-0.0339617,VALID,20.2413,VALID,171,VALID,0,
2002-12-16, 03:29:00,VALID,917.827,VALID,0,VALID,97.0412,VALID,-0.0339617,VALID,20.2383,VALID,171,VALID,0,
2002-12-16, 03:30:00,VALID,917.83,VALID,0.2,VALID,97.0005,VALID,0,VALID,20.2221,VALID,169,VALID,0.120536,